Estació meteorològica de Els Cortals - St. Hilari Sacalm (La Selva, Guilleries)

Consulta les dades en temps real de l'estació meteorològica de Els Cortals - St. Hilari Sacalm





Hora UTC 13:40
Temperatura 26.4 ºC
Humitat 64.0 %
Pressió 1014.1 hPa
Pluja 0.0 mm
Velocitat vent 0.0 km/h
Direcció vent E

Dades diàries 2026-09-02



Hora UTC (hivern +1h; estiu +2h)
Temperatura (ºC) Humitat (%) Pressió (hPa) Velocitat vent (km/h) Precipitació (mm)
Hora UTC Aire Humitat Pressió Vel. Dir. Vel. Max Dir. Intent. màx 5 min.
00:05 18.9 82.0 1013.6 0.0 WSW 0.0 0.0
00:10 18.9 82.0 1013.6 0.0 WSW 0.0 0.0
00:15 18.9 82.0 1013.6 0.0 WSW 0.0 0.0
00:20 18.9 82.0 1013.6 0.0 WSW 0.0 0.0
00:25 18.8 82.0 1013.6 0.0 WSW 0.0 0.0
00:30 18.8 82.0 1013.5 0.0 WSW 0.0 0.0
00:35 18.8 82.0 1013.5 0.0 WSW 0.0 0.0
00:40 18.8 82.0 1013.5 0.0 WSW 0.0 0.0
00:45 18.8 82.0 1013.4 0.0 WSW 0.0 0.0
00:50 18.8 82.0 1013.5 0.0 WSW 0.0 0.0
00:55 18.7 82.0 1013.4 0.0 WSW 0.0 0.0
01:00 18.5 82.0 1013.4 0.0 WSW 0.0 0.0
01:05 18.5 82.0 1013.4 0.0 WSW 0.0 0.0
01:10 18.6 82.0 1013.4 0.0 WSW 0.0 0.0
01:15 18.7 82.0 1013.4 0.0 WSW 0.0 0.0
01:20 18.7 82.0 1013.4 0.0 WSW 0.0 0.0
01:25 18.6 82.0 1013.4 0.0 WSW 0.0 0.0
01:30 18.5 82.0 1013.4 0.0 WSW 0.0 0.0
01:35 18.6 82.0 1013.3 0.0 WSW 0.0 0.0
01:40 18.6 82.0 1013.3 0.0 WSW 0.0 0.0
01:45 18.4 82.0 1013.2 0.0 WSW 0.0 0.0
01:50 18.4 82.0 1013.2 0.0 WSW 0.0 0.0
01:55 18.3 82.0 1013.3 0.0 WSW 0.0 0.0
02:00 18.3 82.0 1013.3 0.0 WSW 0.0 0.0
02:05 18.2 82.0 1013.3 0.0 WSW 0.0 0.0
02:10 18.1 82.0 1013.3 0.0 WSW 0.0 0.0
02:15 18.2 82.0 1013.2 0.0 WSW 0.0 0.0
02:20 18.2 82.0 1013.3 0.0 WSW 0.0 0.0
02:25 17.9 82.0 1013.2 0.0 WSW 0.0 0.0
02:30 17.9 83.0 1013.1 0.0 WSW 0.0 0.0
02:35 17.9 82.0 1013.3 0.0 WSW 0.0 0.0
02:40 17.9 82.0 1013.3 0.0 WSW 0.0 0.0
02:45 17.9 83.0 1013.2 0.0 WSW 0.0 0.0
02:50 17.8 82.0 1013.2 0.0 WSW 0.0 0.0
02:55 17.9 82.0 1013.3 0.0 WSW 0.0 0.0
03:00 17.8 82.0 1013.2 0.0 WSW 0.0 0.0
03:05 17.8 82.0 1013.2 0.0 WSW 0.0 0.0
03:10 17.7 82.0 1013.2 0.0 WSW 0.0 0.0
03:15 17.7 82.0 1013.3 0.0 WSW 0.0 0.0
03:20 17.6 81.0 1013.3 0.0 WSW 0.0 0.0
03:25 17.7 81.0 1013.2 0.0 WSW 0.0 0.0
03:30 17.7 80.0 1013.3 0.0 WSW 0.0 0.0
03:35 17.9 79.0 1013.3 0.0 WSW 0.0 0.0
03:40 17.9 79.0 1013.3 0.0 WSW 0.0 0.0
03:45 17.8 78.0 1013.2 0.0 WSW 0.0 0.0
03:50 17.8 78.0 1013.3 0.0 WSW 0.0 0.0
03:55 17.8 77.0 1013.4 0.0 WSW 0.0 0.0
04:00 18.0 77.0 1013.2 0.0 WSW 0.0 0.0
04:05 17.8 76.0 1013.2 0.0 WSW 0.0 0.0
04:10 17.9 76.0 1013.3 0.0 WSW 0.0 0.0
04:15 17.8 76.0 1013.2 0.0 WSW 0.0 0.0
04:20 17.6 76.0 1013.2 0.0 WSW 0.0 0.0
04:25 17.6 75.0 1013.2 0.0 WSW 0.0 0.0
04:30 17.6 75.0 1013.1 0.0 WSW 0.0 0.0
04:35 17.6 75.0 1013.1 0.0 WSW 0.0 0.0
04:40 17.5 75.0 1013.1 0.0 WSW 0.0 0.0
04:45 17.5 74.0 1013.1 0.0 WSW 0.0 0.0
04:50 17.6 74.0 1013.1 0.0 WSW 0.0 0.0
04:55 17.7 73.0 1013.1 0.0 WSW 0.0 0.0
05:00 17.8 73.0 1013.2 0.0 WSW 0.0 0.0
05:05 17.9 72.0 1013.2 0.0 WSW 0.0 0.0
05:10 18.0 72.0 1013.2 0.0 WSW 0.0 0.0
05:15 18.0 72.0 1013.3 0.0 WSW 0.0 0.0
05:20 17.8 73.0 1013.3 0.0 WSW 0.0 0.0
05:25 17.8 73.0 1013.4 0.0 WSW 0.0 0.0
05:30 17.7 73.0 1013.3 0.0 WSW 0.0 0.0
05:35 17.7 73.0 1013.4 0.0 WSW 0.0 0.0
05:40 17.8 73.0 1013.4 0.0 WSW 0.0 0.0
05:45 17.8 74.0 1013.4 0.0 WSW 0.0 0.0
05:50 17.9 73.0 1013.5 0.0 WSW 0.0 0.0
05:55 18.1 73.0 1013.6 0.0 W 0.0 0.0
06:00 18.2 72.0 1013.6 0.0 W 0.0 0.0
06:05 18.5 72.0 1013.6 0.0 W 0.0 0.0
06:10 18.8 72.0 1013.6 0.0 W 0.0 0.0
06:15 19.1 71.0 1013.7 0.0 W 0.0 0.0
06:20 19.6 69.0 1013.8 0.0 W 0.0 0.0
06:25 19.9 69.0 1013.8 0.0 W 0.0 0.0
06:30 20.6 66.0 1013.9 0.0 W 0.0 0.0
06:35 21.3 66.0 1013.9 0.0 W 0.0 0.0
06:40 21.8 62.0 1014.0 0.0 W 0.0 0.0
06:45 22.2 61.0 1014.2 0.0 ESE 0.0 0.0
06:50 22.3 59.0 1014.1 0.0 E 0.0 0.0
06:55 22.4 59.0 1014.2 0.0 E 0.0 0.0
07:00 22.5 59.0 1014.2 0.0 ESE 0.0 0.0
07:05 22.5 58.0 1014.3 0.0 E 0.0 0.0
07:10 22.6 59.0 1014.2 0.0 E 0.0 0.0
07:15 22.8 58.0 1014.2 0.0 E 0.0 0.0
07:20 22.9 57.0 1014.2 0.0 E 0.0 0.0
07:25 23.1 56.0 1014.4 0.0 NE 0.0 0.0
07:30 23.3 55.0 1014.2 0.0 NE 0.0 0.0
07:35 23.4 56.0 1014.4 0.0 ENE 0.0 0.0
07:40 23.4 56.0 1014.3 0.0 ENE 0.0 0.0
07:45 23.4 55.0 1014.4 0.0 E 0.0 0.0
07:50 23.5 54.0 1014.3 0.0 SE 0.0 0.0
07:55 23.6 52.0 1014.2 0.0 SE 0.0 0.0
08:00 23.7 52.0 1014.4 0.0 E 0.0 0.0
08:05 23.8 54.0 1014.2 0.0 NNE 0.0 0.0
08:10 23.8 55.0 1014.5 0.0 E 0.0 0.0
08:15 23.9 54.0 1014.4 0.0 NE 0.0 0.0
08:20 24.2 54.0 1014.4 0.0 E 0.0 0.0
08:25 24.2 53.0 1014.5 0.0 NE 0.0 0.0
08:30 24.2 53.0 1014.4 0.0 SE 0.0 0.0
08:35 24.4 51.0 1014.5 0.0 E 0.0 0.0
08:40 24.5 51.0 1014.6 0.0 E 0.0 0.0
08:45 24.7 52.0 1014.7 0.0 SE 0.0 0.0
08:50 24.8 50.0 1014.7 0.0 NE 0.0 0.0
08:55 24.8 50.0 1014.9 0.0 NE 0.0 0.0
09:00 24.9 51.0 1014.8 0.0 ENE 0.0 0.0
09:05 25.1 50.0 1014.8 0.0 E 0.0 0.0
09:10 25.2 50.0 1014.8 0.0 NE 0.0 0.0
09:15 25.4 49.0 1015.0 0.0 NE 0.0 0.0
09:20 25.3 50.0 1015.1 0.0 E 0.0 0.0
09:25 25.3 49.0 1015.0 0.0 SW 0.0 0.0
09:30 25.4 50.0 1015.0 0.0 NNE 0.0 0.0
09:35 25.5 50.0 1014.9 0.0 E 0.0 0.0
09:40 25.5 50.0 1015.0 0.0 ENE 0.0 0.0
09:45 25.6 50.0 1015.1 0.0 NNE 0.0 0.0
09:50 25.7 50.0 1015.2 0.0 NNE 0.0 0.0
09:55 25.9 50.0 1015.1 0.0 E 0.0 0.0
10:00 25.9 50.0 1015.1 0.0 ENE 0.0 0.0
10:05 26.0 51.0 1015.3 0.0 SE 0.0 0.0
10:10 26.1 50.0 1015.1 0.0 E 0.0 0.0
10:15 26.4 50.0 1015.2 0.0 NE 0.0 0.0
10:20 26.6 50.0 1015.2 0.0 ENE 0.0 0.0
10:25 26.4 50.0 1015.0 0.0 SW 0.0 0.0
10:30 26.6 50.0 1015.1 0.0 SE 0.0 0.0
10:35 26.7 51.0 1015.1 0.0 E 0.0 0.0
10:40 26.9 50.0 1015.0 0.0 NE 0.0 0.0
10:45 27.1 50.0 1015.1 0.0 ENE 0.0 0.0
10:50 27.1 50.0 1015.1 0.0 SSE 0.0 0.0
10:55 27.3 51.0 1015.0 0.0 SSE 0.0 0.0
11:00 27.4 51.0 1015.0 0.0 ESE 0.0 0.0
11:05 27.3 51.0 1015.0 0.0 S 0.0 0.0
11:10 27.0 51.0 1015.0 0.0 ENE 0.0 0.0
11:15 27.0 52.0 1014.9 0.0 ENE 0.0 0.0
11:20 27.1 52.0 1014.9 0.0 E 0.0 0.0
11:25 27.1 51.0 1014.9 0.0 SSE 0.0 0.0
11:30 27.1 51.0 1014.9 0.0 ESE 0.0 0.0
11:35 27.0 51.0 1014.8 0.0 E 0.0 0.0
11:40 26.9 52.0 1014.8 0.0 ESE 0.0 0.0
11:45 26.8 51.0 1014.9 0.0 SE 0.0 0.0
11:50 26.9 52.0 1014.7 0.0 E 0.0 0.0
11:55 27.1 52.0 1014.6 0.0 SE 0.0 0.0
12:00 26.9 51.0 1014.6 0.0 ESE 0.0 0.0
12:05 27.1 51.0 1014.6 0.0 S 0.0 0.0
12:10 27.2 51.0 1014.5 0.0 ENE 0.0 0.0
12:15 27.2 51.0 1014.4 0.0 E 0.0 0.0
12:20 27.2 50.0 1014.4 0.0 SE 0.0 0.0
12:25 27.3 51.0 1014.4 0.0 E 0.0 0.0
12:30 27.3 50.0 1014.4 0.0 ENE 0.0 0.0
12:35 27.2 51.0 1014.4 0.0 NNE 0.0 0.0
12:40 27.2 53.0 1014.4 0.0 E 0.0 0.0
12:45 26.9 55.0 1014.4 0.0 ESE 0.0 0.0
12:50 26.7 59.0 1014.5 0.0 ENE 0.0 0.0
12:55 26.5 60.0 1014.3 0.0 ESE 0.0 0.0
13:00 26.6 61.0 1014.3 0.0 S 0.0 0.0
13:05 26.7 61.0 1014.3 0.0 SSE 0.0 0.0
13:10 26.7 61.0 1014.4 0.0 ESE 0.0 0.0
13:15 26.6 62.0 1014.4 0.0 ENE 0.0 0.0
13:20 26.3 62.0 1014.2 0.0 E 0.0 0.0
13:25 26.3 63.0 1014.3 0.0 E 0.0 0.0
13:30 26.4 62.0 1014.3 0.0 ESE 0.0 0.0
13:35 26.4 63.0 1014.1 0.0 ENE 0.0 0.0
13:40 26.4 64.0 1014.1 0.0 E 0.0 0.0
Màxima 27.4 83.0 1015.3 0.0 E 0.0 0.0
Mínima 17.5 49.0 1013.1
Total 0.0